NEWFOUND LAKE DAM: From 08/05/2019 17:00 to 08/20/2019 01:00

Date STAGE [FT] FLOW [CFS] LAKE ELEVATION [FT] PRECIPITATION INCREMENT [IN] AIR TEMPERATURE [DEGF]
08/19/2019 20:00 -- -- -- 0.00 --
08/19/2019 19:00 4.19 -- 587.14 0.00 78.8
08/19/2019 18:00 4.19 11.0 587.11 0.00 81.3
08/19/2019 17:00 4.19 11.0 587.16 0.00 81.1
08/19/2019 16:00 4.19 11.0 587.15 0.00 81.7
08/19/2019 15:00 4.19 11.0 587.13 0.00 83.4
08/19/2019 14:00 4.19 11.0 587.13 0.00 84.0
08/19/2019 13:00 4.19 11.0 587.15 0.00 82.4
08/19/2019 12:00 4.18 11.0 587.14 0.00 78.5
08/19/2019 11:00 4.19 11.0 587.15 0.00 73.6
08/19/2019 10:00 4.18 11.0 587.14 0.00 70.4
08/19/2019 09:00 4.19 11.0 587.15 0.00 69.3
08/19/2019 08:00 4.19 11.0 587.14 0.00 68.2
08/19/2019 07:00 4.19 11.0 587.13 0.00 68.2
08/19/2019 06:00 4.19 11.0 587.15 0.00 69.3
08/19/2019 05:00 4.19 11.0 587.15 0.00 69.6
08/19/2019 04:00 4.19 11.0 587.13 0.00 69.6
08/19/2019 03:00 4.19 11.0 587.14 0.00 69.7
08/19/2019 02:00 4.19 11.0 587.13 0.01 70.2
08/19/2019 01:00 4.19 11.0 587.13 0.06 70.6
08/19/2019 00:00 4.19 11.0 587.14 0.03 70.2
08/18/2019 23:00 4.19 11.0 587.12 0.00 70.3
08/18/2019 22:00 4.19 11.0 587.12 0.00 70.9
08/18/2019 21:00 4.19 11.0 587.15 0.00 71.7
08/18/2019 20:00 4.19 11.0 587.14 0.00 72.9
08/18/2019 19:00 4.19 11.0 587.14 0.00 78.1
08/18/2019 18:00 4.19 11.0 587.13 0.00 81.4
08/18/2019 17:00 4.19 11.0 587.13 0.00 82.4
08/18/2019 16:00 4.19 11.0 587.14 0.00 81.6
08/18/2019 15:00 4.19 11.0 587.13 0.00 79.0
08/18/2019 14:00 4.19 11.0 587.12 0.00 77.7
08/18/2019 13:00 4.18 11.0 587.13 0.00 73.7
08/18/2019 12:00 4.19 11.0 587.13 0.00 71.3
08/18/2019 11:00 4.18 11.0 587.13 0.00 68.8
08/18/2019 10:00 4.18 11.0 587.13 0.00 66.4
08/18/2019 09:00 4.18 11.0 587.12 0.00 65.1
08/18/2019 08:00 4.18 11.0 587.12 0.00 64.2
08/18/2019 07:00 4.18 11.0 587.14 0.00 64.2
08/18/2019 06:00 4.18 11.0 587.12 0.00 64.1
08/18/2019 05:00 4.18 11.0 587.12 0.00 64.3
08/18/2019 04:00 4.18 11.0 587.12 0.00 64.4
08/18/2019 03:00 4.18 11.0 587.15 0.00 64.3
08/18/2019 02:00 4.18 11.0 587.12 0.00 64.2
08/18/2019 01:00 4.18 11.0 587.14 0.00 64.2
08/18/2019 00:00 4.18 11.0 587.12 0.01 65.1
08/17/2019 23:00 4.18 11.0 587.15 0.02 65.0
08/17/2019 22:00 4.19 11.0 587.17 0.57 65.2
08/17/2019 21:00 4.18 11.0 587.11 0.00 70.0
08/17/2019 20:00 4.18 11.0 587.10 0.00 71.0
08/17/2019 19:00 4.18 11.0 587.07 0.00 72.8
08/17/2019 18:00 4.19 11.0 587.08 0.00 73.5
08/17/2019 17:00 4.19 11.0 587.07 0.00 75.0
08/17/2019 16:00 4.18 11.0 587.07 0.00 74.7
08/17/2019 15:00 4.19 11.0 587.10 0.00 73.5
08/17/2019 14:00 4.18 11.0 587.08 0.00 70.2
08/17/2019 13:00 4.19 11.0 587.08 0.00 69.8
08/17/2019 12:00 4.19 11.0 587.09 0.00 67.5
08/17/2019 11:00 4.19 11.0 587.08 0.00 66.2
08/17/2019 10:00 4.18 11.0 587.08 0.00 65.2
08/17/2019 09:00 4.19 11.0 587.09 0.00 65.5
08/17/2019 08:00 4.18 11.0 587.06 0.00 65.3
08/17/2019 07:00 4.18 11.0 587.07 0.00 64.9
08/17/2019 06:00 4.18 11.0 587.09 0.00 64.9
08/17/2019 05:00 4.18 11.0 587.08 0.00 64.7
08/17/2019 04:00 4.18 11.0 587.09 0.00 65.0
08/17/2019 03:00 4.18 11.0 587.08 0.00 65.0
08/17/2019 02:00 4.18 11.0 587.09 0.00 66.0
08/17/2019 01:00 4.18 11.0 587.08 0.00 66.7
08/17/2019 00:00 4.18 11.0 587.09 0.00 66.9
08/16/2019 23:00 4.18 11.0 587.10 0.00 68.5
08/16/2019 22:00 4.18 11.0 587.08 0.00 69.0
08/16/2019 21:00 4.18 11.0 587.09 0.00 69.9
08/16/2019 20:00 4.18 11.0 587.09 0.00 71.9
08/16/2019 19:00 4.18 11.0 587.08 0.00 75.2
08/16/2019 18:00 4.18 11.0 587.09 0.00 77.2
08/16/2019 17:00 4.19 11.0 587.09 0.00 78.1
08/16/2019 16:00 4.19 11.0 587.08 0.00 75.2
08/16/2019 15:00 4.18 11.0 587.10 0.00 71.6
08/16/2019 14:00 4.18 11.0 587.11 0.00 73.2
08/16/2019 13:00 4.18 11.0 587.09 -- 69.4
08/16/2019 12:00 4.20 11.0 587.09 0.00 68.1
08/16/2019 11:00 4.19 11.0 587.09 0.00 66.4
08/16/2019 10:00 4.18 11.0 587.09 0.00 64.7
08/16/2019 09:00 4.22 12.3 587.08 0.00 64.0
08/16/2019 08:00 4.22 12.3 587.11 0.00 63.1
08/16/2019 07:00 4.22 12.3 587.11 0.02 62.9
08/16/2019 06:00 4.22 12.3 587.09 0.04 63.1
08/16/2019 05:00 4.22 12.3 587.09 0.02 63.3
08/16/2019 04:00 4.23 13.0 587.10 0.19 63.7
08/16/2019 03:00 4.22 12.3 587.09 0.00 64.7
08/16/2019 02:00 4.23 13.0 587.08 0.00 66.0
08/16/2019 01:00 4.23 13.0 587.09 0.00 66.1
08/16/2019 00:00 4.23 13.0 587.10 0.00 66.5
08/15/2019 23:00 4.23 13.0 587.08 0.00 67.2
08/15/2019 22:00 4.23 13.0 587.10 0.00 67.9
08/15/2019 21:00 4.23 13.0 587.09 0.00 71.2
08/15/2019 20:00 4.23 13.0 587.09 0.00 73.6
08/15/2019 19:00 4.23 13.0 587.08 0.00 79.0
08/15/2019 18:00 4.23 13.0 587.09 0.00 75.3
08/15/2019 17:00 4.23 13.0 587.10 0.00 77.8
08/15/2019 16:00 4.23 13.0 587.09 0.00 77.2
08/15/2019 15:00 4.23 13.0 587.09 0.00 76.8
08/15/2019 14:00 4.23 13.0 587.09 0.00 75.4
08/15/2019 13:00 4.23 13.0 587.09 0.00 74.3
08/15/2019 12:00 4.23 13.0 587.10 0.00 72.2
08/15/2019 11:00 4.23 13.0 587.10 0.00 70.1
08/15/2019 10:00 4.23 13.0 587.10 0.00 65.1
08/15/2019 09:00 4.23 13.0 587.10 0.00 60.2
08/15/2019 08:00 4.23 13.0 587.07 0.00 57.4
08/15/2019 07:00 4.23 13.0 587.10 0.00 57.2
08/15/2019 06:00 4.23 13.0 587.11 0.00 58.3
08/15/2019 05:00 4.23 13.0 587.10 0.00 59.6
08/15/2019 04:00 4.22 12.3 587.09 0.00 59.0
08/15/2019 03:00 4.22 12.3 587.10 0.00 59.4
08/15/2019 02:00 4.22 12.3 587.11 0.00 60.4
08/15/2019 01:00 4.22 12.3 587.10 0.00 61.5
08/15/2019 00:00 4.22 12.3 587.11 0.00 62.2
08/14/2019 23:00 4.22 12.3 587.11 0.00 63.7
08/14/2019 22:00 4.22 12.3 587.10 0.00 65.7
08/14/2019 21:00 4.22 12.3 587.12 0.00 68.5
08/14/2019 20:00 4.22 12.3 587.11 0.00 70.4
08/14/2019 19:00 4.22 12.3 587.11 0.00 72.5
08/14/2019 18:00 4.22 12.3 587.11 0.00 79.6
08/14/2019 17:00 4.22 12.3 587.11 0.00 77.5
08/14/2019 16:00 4.22 12.3 587.11 0.00 77.1
08/14/2019 15:00 4.22 12.3 587.11 0.00 76.8
08/14/2019 14:00 4.22 12.3 587.10 0.00 75.1
08/14/2019 13:00 4.22 12.3 587.11 0.00 73.0
08/14/2019 12:00 4.22 12.3 587.11 0.00 72.0
08/14/2019 11:00 4.22 12.3 587.12 0.00 69.5
08/14/2019 10:00 4.22 12.3 587.11 0.00 64.7
08/14/2019 09:00 4.22 12.3 587.12 0.00 60.8
08/14/2019 08:00 4.21 11.7 587.09 0.00 58.2
08/14/2019 07:00 4.22 12.3 587.09 0.00 57.9
08/14/2019 06:00 4.22 12.3 587.10 0.00 58.3
08/14/2019 05:00 4.22 12.3 587.12 0.00 58.8
08/14/2019 04:00 4.22 12.3 587.12 0.00 59.8
08/14/2019 03:00 4.22 12.3 587.11 0.00 61.5
08/14/2019 02:00 4.21 11.7 587.10 0.00 62.4
08/14/2019 01:00 4.22 12.3 587.12 0.00 62.6
08/14/2019 00:00 4.22 12.3 587.13 0.00 64.0
08/13/2019 23:00 4.22 12.3 587.12 0.00 66.3
08/13/2019 22:00 4.22 12.3 587.12 0.00 67.6
08/13/2019 21:00 4.22 12.3 587.12 0.00 68.9
08/13/2019 20:00 4.22 12.3 587.12 0.00 70.4
08/13/2019 19:00 4.22 12.3 587.10 0.01 70.2
08/13/2019 18:00 4.22 12.3 587.15 0.09 68.6
08/13/2019 17:00 4.22 12.3 587.11 0.00 75.1
08/13/2019 16:00 4.22 12.3 587.08 0.00 75.1
08/13/2019 15:00 4.22 12.3 587.07 0.12 72.0
08/13/2019 14:00 4.22 12.3 587.10 0.00 75.7
08/13/2019 13:00 4.21 11.7 587.11 0.00 75.0
08/13/2019 12:00 4.21 11.7 587.10 0.01 74.4
08/13/2019 11:00 4.21 11.7 587.10 0.00 71.8
08/13/2019 10:00 4.21 11.7 587.12 0.00 69.0
08/13/2019 09:00 4.22 12.3 587.09 0.00 66.4
08/13/2019 08:00 4.21 11.7 587.09 0.00 65.8
08/13/2019 07:00 4.21 11.7 587.10 0.00 65.3
08/13/2019 06:00 4.21 11.7 587.11 0.00 65.3
08/13/2019 05:00 4.21 11.7 587.11 0.00 64.7
08/13/2019 04:00 4.21 11.7 587.09 0.00 65.5
08/13/2019 03:00 4.21 11.7 587.09 0.00 63.9
08/13/2019 02:00 4.21 11.7 587.10 0.00 64.0
08/13/2019 01:00 4.21 11.7 587.09 0.00 64.8
08/13/2019 00:00 4.21 11.7 587.10 0.00 65.2
08/12/2019 23:00 4.21 11.7 587.11 0.00 65.7
08/12/2019 22:00 4.21 11.7 587.10 0.00 67.3
08/12/2019 21:00 4.22 12.3 587.09 0.00 70.3
08/12/2019 20:00 4.21 11.7 587.10 0.00 74.7
08/12/2019 19:00 4.21 11.7 587.10 0.00 76.5
08/12/2019 18:00 4.22 12.3 587.11 0.00 81.5
08/12/2019 17:00 4.22 12.3 587.14 0.00 80.4
08/12/2019 16:00 4.21 11.7 587.11 0.00 81.0
08/12/2019 15:00 4.21 11.7 587.13 0.00 80.8
08/12/2019 14:00 4.22 12.3 587.13 0.00 80.5
08/12/2019 13:00 4.22 12.3 587.12 0.00 79.3
08/12/2019 12:00 4.21 11.7 587.11 0.00 76.0
08/12/2019 11:00 4.21 11.7 587.12 0.00 72.7
08/12/2019 10:00 4.26 15.2 587.11 0.00 65.3
08/12/2019 09:00 4.26 15.2 587.10 0.00 59.8
08/12/2019 08:00 4.26 15.2 587.10 0.00 55.0
08/12/2019 07:00 4.26 15.2 587.09 0.00 54.1
08/12/2019 06:00 4.26 15.2 587.12 0.00 54.1
08/12/2019 05:00 4.26 15.2 587.11 0.00 54.7
08/12/2019 04:00 4.26 15.2 587.09 0.00 55.0
08/12/2019 03:00 4.26 15.2 587.10 0.00 56.0
08/12/2019 02:00 4.26 15.2 587.11 0.00 57.0
08/12/2019 01:00 4.26 15.2 587.11 0.00 58.0
08/12/2019 00:00 4.26 15.2 587.13 0.00 58.9
08/11/2019 23:00 4.26 15.2 587.11 0.00 60.3
08/11/2019 22:00 4.26 15.2 587.11 0.00 62.2
08/11/2019 21:00 4.26 15.2 587.11 0.00 66.2
08/11/2019 20:00 4.26 15.2 587.11 0.00 72.1
08/11/2019 19:00 4.26 15.2 587.14 0.00 72.7
08/11/2019 18:00 4.27 16.0 587.15 0.00 74.0
08/11/2019 17:00 4.27 16.0 587.15 0.00 74.2
08/11/2019 16:00 4.27 16.0 587.17 0.00 73.2
08/11/2019 15:00 4.27 16.0 587.09 0.00 72.1
08/11/2019 14:00 4.27 16.0 587.13 0.00 70.0
08/11/2019 13:00 4.27 16.0 587.15 0.00 68.9
08/11/2019 12:00 4.27 16.0 587.18 0.00 69.6
08/11/2019 11:00 4.27 16.0 587.15 0.00 68.6
08/11/2019 10:00 4.27 16.0 587.17 0.00 63.4
08/11/2019 09:00 4.27 16.0 587.14 0.00 57.7
08/11/2019 08:00 4.27 16.0 587.11 0.00 52.5
08/11/2019 07:00 4.27 16.0 587.11 0.00 53.7
08/11/2019 06:00 4.27 16.0 587.15 0.00 56.1
08/11/2019 05:00 4.27 16.0 587.12 0.00 56.7
08/11/2019 04:00 4.27 16.0 587.11 0.00 55.5
08/11/2019 03:00 4.27 16.0 587.15 0.00 53.9
08/11/2019 02:00 4.27 16.0 587.12 0.00 54.4
08/11/2019 01:00 4.27 16.0 587.13 0.00 55.3
08/11/2019 00:00 4.27 16.0 587.16 0.00 55.4
08/10/2019 23:00 4.27 16.0 587.15 0.00 55.2
08/10/2019 22:00 4.27 16.0 587.15 0.00 58.1
08/10/2019 21:00 4.27 16.0 587.17 0.00 62.3
08/10/2019 20:00 4.27 16.0 587.20 0.00 64.9
08/10/2019 19:00 4.27 16.0 587.13 0.00 64.4
08/10/2019 18:00 4.27 16.0 587.18 0.00 70.7
08/10/2019 17:00 4.27 16.0 587.22 0.00 71.7
08/10/2019 16:00 4.27 16.0 587.13 0.00 70.5
08/10/2019 15:00 4.27 16.0 587.16 0.00 68.1
08/10/2019 14:00 4.27 16.0 587.14 0.00 65.5
08/10/2019 13:00 4.27 16.0 587.17 0.00 67.8
08/10/2019 12:00 4.27 16.0 587.17 0.00 69.2
08/10/2019 11:00 4.27 16.0 587.18 0.00 68.2
08/10/2019 10:00 4.27 16.0 587.16 0.00 66.0
08/10/2019 09:00 4.27 16.0 587.16 0.00 60.7
08/10/2019 08:00 4.27 16.0 587.16 0.00 55.2
08/10/2019 07:00 4.27 16.0 587.14 0.00 54.3
08/10/2019 06:00 4.27 16.0 587.18 0.00 54.5
08/10/2019 05:00 4.27 16.0 587.15 0.00 55.5
08/10/2019 04:00 4.27 16.0 587.13 0.00 56.1
08/10/2019 03:00 4.27 16.0 587.21 0.00 56.6
08/10/2019 02:00 4.27 16.0 587.19 0.00 57.2
08/10/2019 01:00 4.27 16.0 587.14 0.00 58.4
08/10/2019 00:00 4.27 16.0 587.20 0.00 59.9
08/09/2019 23:00 4.27 16.0 587.21 0.00 63.1
08/09/2019 22:00 4.27 16.0 587.16 0.00 61.6
08/09/2019 21:00 4.27 16.0 587.16 0.00 63.3
08/09/2019 20:00 4.27 16.0 587.15 0.00 65.7
08/09/2019 19:00 4.27 16.0 587.17 0.03 67.5
08/09/2019 18:00 4.27 16.0 587.20 0.00 79.5
08/09/2019 17:00 4.27 16.0 587.19 0.00 79.3
08/09/2019 16:00 4.27 16.0 587.19 0.00 78.3
08/09/2019 15:00 4.27 16.0 587.21 0.00 78.9
08/09/2019 14:00 4.27 16.0 587.19 0.00 78.0
08/09/2019 13:00 4.27 16.0 587.17 0.00 76.8
08/09/2019 12:00 4.27 16.0 587.19 0.00 74.7
08/09/2019 11:00 4.27 16.0 587.20 0.00 72.8
08/09/2019 10:00 4.27 16.0 587.18 0.00 69.9
08/09/2019 09:00 4.27 16.0 587.20 0.00 64.3
08/09/2019 08:00 4.27 16.0 587.18 0.00 61.5
08/09/2019 07:00 4.27 16.0 587.19 0.00 60.5
08/09/2019 06:00 4.27 16.0 587.19 0.00 60.5
08/09/2019 05:00 4.27 16.0 587.19 0.00 61.5
08/09/2019 04:00 4.27 16.0 587.20 0.00 63.1
08/09/2019 03:00 4.27 16.0 587.18 0.00 65.6
08/09/2019 02:00 4.27 16.0 587.22 0.00 67.2
08/09/2019 01:00 4.27 16.0 587.20 0.00 69.4
08/09/2019 00:00 4.27 16.0 587.23 0.00 68.0
08/08/2019 23:00 4.27 16.0 587.21 0.00 67.3
08/08/2019 22:00 4.27 16.0 587.22 0.00 67.3
08/08/2019 21:00 4.27 16.0 587.20 0.00 69.8
08/08/2019 20:00 4.27 16.0 587.22 0.00 74.9
08/08/2019 19:00 4.27 16.0 587.22 0.00 78.3
08/08/2019 18:00 4.27 16.0 587.21 0.00 82.2
08/08/2019 17:00 4.27 16.0 587.21 0.00 83.0
08/08/2019 16:00 4.27 16.0 587.20 0.00 80.2
08/08/2019 15:00 4.27 16.0 587.17 0.01 77.5
08/08/2019 14:00 4.27 16.0 587.19 0.00 76.4
08/08/2019 13:00 4.27 16.0 587.20 0.00 75.5
08/08/2019 12:00 4.27 16.0 587.19 0.00 73.1
08/08/2019 11:00 4.27 16.0 587.20 0.00 72.0
08/08/2019 10:00 4.27 16.0 587.19 0.00 68.3
08/08/2019 09:00 4.26 15.2 587.19 0.00 67.3
08/08/2019 08:00 4.26 15.2 587.18 0.00 66.7
08/08/2019 07:00 4.26 15.2 587.19 0.01 66.4
08/08/2019 06:00 4.26 15.2 587.17 0.00 66.4
08/08/2019 05:00 4.26 15.2 587.19 0.00 66.6
08/08/2019 04:00 4.26 15.2 587.19 0.00 66.8
08/08/2019 03:00 4.26 15.2 587.17 0.01 66.9
08/08/2019 02:00 4.26 15.2 587.19 0.00 67.2
08/08/2019 01:00 4.26 15.2 587.18 0.01 68.4
08/08/2019 00:00 4.26 15.2 587.21 0.00 69.3
08/07/2019 23:00 4.26 15.2 587.21 0.03 68.9
08/07/2019 22:00 4.26 15.2 587.19 0.00 69.1
08/07/2019 21:00 4.26 15.2 587.16 0.00 69.0
08/07/2019 20:00 4.26 15.2 587.25 0.00 69.2
08/07/2019 19:00 4.26 15.2 587.18 0.06 68.7
08/07/2019 18:00 4.26 15.2 587.10 0.00 73.1
08/07/2019 17:00 4.27 16.0 587.18 0.00 81.5
08/07/2019 16:00 4.27 16.0 587.19 0.00 81.3
08/07/2019 15:00 4.26 15.2 587.19 0.00 80.1
08/07/2019 14:00 4.26 15.2 587.19 0.00 78.5
08/07/2019 13:00 4.26 15.2 587.18 0.00 75.1
08/07/2019 12:00 4.26 15.2 587.20 0.00 75.0
08/07/2019 11:00 4.26 15.2 587.21 0.00 72.1
08/07/2019 10:00 4.27 16.0 587.18 0.00 69.6
08/07/2019 09:00 4.27 16.0 587.18 0.00 68.5
08/07/2019 08:00 4.26 15.2 587.20 0.00 67.3
08/07/2019 07:00 4.26 15.2 587.19 0.00 66.8
08/07/2019 06:00 4.26 15.2 587.20 0.00 66.3
08/07/2019 05:00 4.26 15.2 587.18 0.00 65.8
08/07/2019 04:00 4.26 15.2 587.17 0.00 66.2
08/07/2019 03:00 4.26 15.2 587.22 0.00 66.8
08/07/2019 02:00 4.26 15.2 587.20 0.00 65.9
08/07/2019 01:00 4.26 15.2 587.20 0.00 66.4
08/07/2019 00:00 4.26 15.2 587.20 0.00 66.8
08/06/2019 23:00 4.26 15.2 587.20 0.00 67.8
08/06/2019 22:00 4.26 15.2 587.19 0.00 69.7
08/06/2019 21:00 4.26 15.2 587.19 0.00 73.3
08/06/2019 20:00 4.26 15.2 587.19 0.00 76.6
08/06/2019 19:00 4.26 15.2 587.17 0.00 80.7
08/06/2019 18:00 4.27 16.0 587.18 0.00 81.6
08/06/2019 17:00 4.27 16.0 587.19 0.00 82.4
08/06/2019 16:00 4.27 16.0 587.18 0.00 82.4
08/06/2019 15:00 4.27 16.0 587.19 0.00 80.7
08/06/2019 14:00 4.27 16.0 587.19 0.00 81.0
08/06/2019 13:00 4.27 16.0 587.20 0.00 78.9
08/06/2019 12:00 4.27 16.0 587.22 0.00 75.6
08/06/2019 11:00 4.27 16.0 587.21 0.00 70.4
08/06/2019 10:00 4.27 16.0 587.20 0.00 63.3
08/06/2019 09:00 4.26 15.2 587.19 0.00 57.5
08/06/2019 08:00 4.27 16.0 587.23 0.00 53.5
08/06/2019 07:00 4.26 15.2 587.20 0.00 52.5
08/06/2019 06:00 4.26 15.2 587.21 0.00 52.4
08/06/2019 05:00 4.27 16.0 587.22 0.00 53.9
08/06/2019 04:00 4.26 15.2 587.21 0.00 55.0
08/06/2019 03:00 4.26 15.2 587.22 0.00 55.8
08/06/2019 02:00 4.27 16.0 587.23 0.00 56.8
08/06/2019 01:00 4.26 15.2 587.22 0.00 58.1
08/06/2019 00:00 4.26 15.2 587.22 0.00 59.3
08/05/2019 23:00 4.26 15.2 587.23 0.00 61.8
08/05/2019 22:00 4.26 15.2 587.22 0.00 63.9
08/05/2019 21:00 4.27 16.0 587.23 0.00 66.6
08/05/2019 20:00 4.27 16.0 587.22 0.00 71.1
08/05/2019 19:00 -- -- -- -- --
08/05/2019 18:00 -- -- -- -- --
08/05/2019 17:00 -- -- -- -- --